�������l�o���
Date,Time,MP-1(��Sv/h),MP-2(��Sv/h),MP-3(��Sv/h),MP-4(��Sv/h),MP-5(��Sv/h),MP-6(��Sv/h),MP-7(��Sv/h),����,����(m/s),���J
2014/05/21,00:00,0.7,0.5,0.8,0.7,0.7,0.3,0.3,�쓌,1.0,��
2014/05/21,00:10,0.7,0.5,0.8,0.7,0.7,0.3,0.3,-,CALM,��
2014/05/21,00:20,0.7,0.5,0.8,0.7,0.7,0.3,0.3,-,CALM,��
2014/05/21,00:30,0.7,0.5,0.8,0.7,0.7,0.3,0.3,���k��,0.7,��
2014/05/21,00:40,0.7,0.5,0.8,0.7,0.7,0.3,0.3,��,0.9,��
2014/05/21,00:50,0.7,0.5,0.8,0.7,0.7,0.3,0.3,�k��,1.2,��
2014/05/21,01:00,0.7,0.5,0.8,0.7,0.7,0.3,0.3,�k�k��,1.7,��
2014/05/21,01:10,0.7,0.5,0.8,0.7,0.7,0.3,0.3,�k,1.6,��
2014/05/21,01:20,0.7,0.5,0.8,0.7,0.7,0.3,0.3,�k�k��,1.5,��
2014/05/21,01:30,0.7,0.5,0.8,0.7,0.7,0.3,0.3,�k�k��,2.3,��
2014/05/21,01:40,0.7,0.5,0.8,0.7,0.7,0.3,0.3,�k,1.8,��
2014/05/21,01:50,0.7,0.5,0.8,0.7,0.7,0.3,0.3,�k,2.7,��
2014/05/21,02:00,0.7,0.5,0.8,0.7,0.7,0.3,0.3,�k,2.5,��
2014/05/21,02:10,0.7,0.5,0.8,0.7,0.7,0.3,0.3,�k,2.8,��
2014/05/21,02:20,0.7,0.5,0.8,0.7,0.7,0.3,0.3,�k�k��,3.0,��
2014/05/21,02:30,0.7,0.5,0.8,0.7,0.7,0.3,0.3,�k,3.3,��
2014/05/21,02:40,0.7,0.5,0.8,0.7,0.7,0.3,0.3,�k,3.3,��
2014/05/21,02:50,0.7,0.5,0.8,0.7,0.7,0.3,0.3,�k,3.3,��
2014/05/21,03:00,0.7,0.5,0.8,0.7,0.7,0.3,0.3,�k,3.6,��
2014/05/21,03:10,0.7,0.5,0.8,0.7,0.7,0.3,0.3,�k,3.3,��
2014/05/21,03:20,0.7,0.5,0.8,0.7,0.7,0.3,0.3,�k,3.4,��
2014/05/21,03:30,0.7,0.5,0.8,0.7,0.7,0.3,0.3,�k,3.7,��
2014/05/21,03:40,0.7,0.5,0.8,0.7,0.7,0.3,0.3,�k,2.4,��
2014/05/21,03:50,0.7,0.5,0.8,0.7,0.7,0.3,0.3,�k,2.0,�L
2014/05/21,04:00,0.7,0.5,0.8,0.7,0.7,0.3,0.3,�k,2.2,�L
2014/05/21,04:10,0.7,0.5,0.8,0.7,0.7,0.3,0.3,�k,3.8,�L
2014/05/21,04:20,0.7,0.5,0.8,0.7,0.7,0.3,0.3,�k��,3.0,�L
2014/05/21,04:30,0.7,0.5,0.8,0.7,0.7,0.3,0.3,�k��,3.3,�L
2014/05/21,04:40,0.7,0.5,0.8,0.7,0.7,0.3,0.3,�k�k��,3.3,�L
2014/05/21,04:50,0.7,0.5,0.8,0.7,0.7,0.3,0.3,�k,3.5,�L
2014/05/21,05:00,0.7,0.5,0.8,0.7,0.7,0.3,0.3,�k,4.8,�L
2014/05/21,05:10,0.7,0.5,0.8,0.7,0.7,0.3,0.3,�k,6.2,�L
2014/05/21,05:20,0.7,0.5,0.8,0.7,0.7,0.3,0.3,�k,6.7,�L
2014/05/21,05:30,0.7,0.5,0.8,0.7,0.6,0.3,0.3,�k,5.4,�L
2014/05/21,05:40,0.7,0.5,0.8,0.7,0.7,0.3,0.3,�k�k��,4.0,�L
2014/05/21,05:50,0.7,0.5,0.8,0.7,0.6,0.3,0.3,�k,2.8,�L
2014/05/21,06:00,0.7,0.5,0.8,0.7,0.6,0.3,0.3,�k,3.4,��
2014/05/21,06:10,0.7,0.5,0.8,0.7,0.6,0.3,0.3,�k,5.4,��
2014/05/21,06:20,0.7,0.5,0.8,0.7,0.6,0.3,0.3,�k,6.1,�L
2014/05/21,06:30,0.7,0.5,0.8,0.7,0.6,0.3,0.3,�k,5.2,�L
2014/05/21,06:40,0.7,0.5,0.8,0.7,0.6,0.3,0.3,�k�k��,4.2,��
2014/05/21,06:50,0.7,0.5,0.8,0.7,0.6,0.3,0.3,�k,5.3,��
2014/05/21,07:00,0.7,0.5,0.8,0.7,0.6,0.3,0.3,�k,4.8,��
2014/05/21,07:10,0.7,0.5,0.8,0.7,0.6,0.3,0.3,�k,5.9,�L
2014/05/21,07:20,0.7,0.5,0.8,0.7,0.6,0.3,0.3,�k�k��,6.0,�L
2014/05/21,07:30,0.7,0.5,0.8,0.7,0.6,0.3,0.3,�k�k��,6.9,�L
2014/05/21,07:40,0.7,0.5,0.8,0.7,0.6,0.3,0.3,�k�k��,5.8,�L
2014/05/21,07:50,0.7,0.5,0.8,0.7,0.6,0.3,0.3,�k�k��,4.9,�L
2014/05/21,08:00,0.7,0.5,0.8,0.7,0.6,0.3,0.3,�k�k��,5.2,�L
2014/05/21,08:10,0.7,0.5,0.8,0.7,0.6,0.3,0.3,�k,6.7,�L
2014/05/21,08:20,0.7,0.5,0.8,0.7,0.6,0.3,0.3,�k,6.1,�L
2014/05/21,08:30,0.7,0.5,0.8,0.7,0.6,0.3,0.3,�k,6.8,�L
2014/05/21,08:40,0.7,0.5,0.8,0.7,0.6,0.3,0.3,�k,6.5,�L
2014/05/21,08:50,0.7,0.5,0.8,0.7,0.6,0.3,0.3,�k,6.4,�L
2014/05/21,09:00,0.7,0.5,0.8,0.7,0.6,0.3,0.3,�k,7.1,�L
2014/05/21,09:10,0.7,0.5,0.7,0.7,0.6,0.3,0.3,�k�k��,7.5,�L
2014/05/21,09:20,0.7,0.5,0.7,0.7,0.6,0.3,0.3,�k�k��,7.6,�L
2014/05/21,09:30,0.7,0.5,0.7,0.7,0.6,0.3,0.3,�k�k��,8.7,�L
2014/05/21,09:40,0.7,0.5,0.7,0.7,0.6,0.3,0.3,�k�k��,8.2,�L
2014/05/21,09:50,0.7,0.5,0.7,0.7,0.6,0.3,0.3,�k�k��,9.1,�L
2014/05/21,10:00,0.7,-,0.7,0.7,0.6,0.3,0.3,�k�k��,9.1,�L
2014/05/21,10:10,0.7,-,0.7,0.7,0.6,0.3,0.3,�k�k��,6.9,�L
2014/05/21,10:20,0.7,-,0.7,0.7,0.6,0.3,0.3,�k�k��,8.3,�L
2014/05/21,10:30,0.7,-,0.7,0.7,0.6,0.3,0.3,�k�k��,9.2,�L
2014/05/21,10:40,0.7,-,0.7,0.7,0.6,0.3,0.3,�k�k��,8.4,�L
2014/05/21,10:50,0.7,-,0.7,0.7,0.6,0.3,0.3,�k,2.3,�L
2014/05/21,11:00,0.7,0.5,0.7,0.7,0.6,0.3,0.3,�k��,0.8,�L
2014/05/21,11:10,0.7,0.5,0.7,0.7,0.6,0.3,0.3,�k,7.0,�L
2014/05/21,11:20,0.7,0.5,0.7,0.7,0.6,0.3,0.3,�k�k��,6.5,�L
2014/05/21,11:30,0.7,0.5,0.7,0.7,0.6,0.3,0.3,�k��,9.7,�L
2014/05/21,11:40,0.7,0.5,0.7,0.7,0.6,0.3,0.3,�k�k��,8.8,�L
2014/05/21,11:50,0.7,0.5,0.7,0.7,0.6,0.3,0.3,�k�k��,9.0,�L
2014/05/21,12:00,0.7,0.5,0.7,0.7,0.6,0.3,0.3,�k�k��,8.4,�L
2014/05/21,12:10,0.7,0.5,0.7,0.7,0.6,0.3,0.3,�k,8.5,�L
2014/05/21,12:20,0.7,0.5,0.7,0.7,0.6,0.3,0.3,�k,8.3,�L
2014/05/21,12:30,0.7,0.5,0.7,0.7,0.6,0.3,0.3,�k�k��,9.4,�L
2014/05/21,12:40,0.7,0.5,0.7,0.7,0.6,0.3,0.3,�k�k��,9.8,�L
2014/05/21,12:50,0.7,0.5,0.7,0.7,0.6,0.3,0.3,�k,8.5,�L
2014/05/21,13:00,0.7,0.5,0.7,0.7,0.6,0.3,0.3,�k�k��,10.6,�L
2014/05/21,13:10,0.7,0.5,0.7,0.7,0.6,0.3,0.3,�k�k��,9.3,�L
2014/05/21,13:20,0.7,0.5,0.7,0.7,0.6,0.3,0.3,�k�k��,10.1,�L
2014/05/21,13:30,0.7,0.5,0.7,0.7,0.6,0.3,0.3,�k,10.0,�L
2014/05/21,13:40,0.7,0.5,0.7,0.7,0.6,0.3,0.3,�k�k��,11.2,�L
2014/05/21,13:50,0.7,0.5,0.7,0.7,0.6,0.3,0.3,�k,10.2,�L
2014/05/21,14:00,0.7,0.5,0.7,0.7,0.6,0.3,0.3,�k�k��,9.6,�L
2014/05/21,14:10,0.7,0.5,0.7,0.6,0.6,0.3,0.3,�k�k��,12.6,�L
2014/05/21,14:20,0.7,-,0.7,0.7,0.6,0.3,0.3,�k�k��,12.4,�L
2014/05/21,14:30,0.7,-,0.7,0.6,0.6,0.3,0.3,�k�k��,11.7,�L
2014/05/21,14:40,0.7,-,0.7,0.6,0.6,0.3,0.3,�k�k��,11.3,�L
2014/05/21,14:50,0.7,-,0.7,0.6,0.6,0.3,0.3,�k,10.8,�L
2014/05/21,15:00,0.7,-,0.7,0.6,0.6,0.3,0.3,�k,11.2,�L
2014/05/21,15:10,0.7,-,0.7,0.6,0.6,0.3,0.3,�k,11.8,�L
2014/05/21,15:20,0.7,0.5,0.7,0.6,0.6,0.3,0.3,�k,11.2,�L
2014/05/21,15:30,0.7,0.5,0.7,0.6,0.6,0.3,0.3,�k,11.8,�L
2014/05/21,15:40,0.7,0.5,0.7,0.6,0.6,0.3,0.3,�k,12.1,�L
2014/05/21,15:50,0.7,0.5,0.7,0.6,0.6,0.3,0.3,�k,13.8,�L
2014/05/21,16:00,0.7,0.5,0.7,0.6,0.6,0.3,0.3,�k,15.2,�L
2014/05/21,16:10,0.7,0.5,0.7,0.6,0.6,0.3,0.3,�k,13.6,�L
2014/05/21,16:20,0.7,0.5,0.7,0.6,0.6,0.3,0.3,�k,14.6,�L
2014/05/21,16:30,0.7,0.5,0.7,0.6,0.6,0.3,0.3,�k,12.5,�L
2014/05/21,16:40,0.7,0.5,0.7,0.6,0.6,0.3,0.3,�k,12.8,�L
2014/05/21,16:50,0.7,0.5,0.7,0.6,0.6,0.3,0.3,�k�k��,10.4,�L
2014/05/21,17:00,0.7,0.5,0.7,0.6,0.6,0.3,0.3,�k,12.1,�L
2014/05/21,17:10,0.7,0.5,0.7,0.6,0.6,0.3,0.3,�k,12.7,�L
2014/05/21,17:20,0.7,0.5,0.7,0.6,0.6,0.3,0.3,�k,11.0,�L
2014/05/21,17:30,0.7,0.5,0.7,0.6,0.6,0.3,0.3,�k,14.1,�L
2014/05/21,17:40,0.7,0.5,0.7,0.6,0.6,0.3,0.3,�k�k��,10.7,�L
2014/05/21,17:50,0.7,0.5,0.7,0.6,0.6,0.3,0.3,�k,12.8,�L
2014/05/21,18:00,0.7,0.5,0.7,0.6,0.6,0.3,0.3,�k,11.6,�L
2014/05/21,18:10,0.7,0.5,0.7,0.6,0.6,0.3,0.3,�k�k��,12.4,�L
2014/05/21,18:20,0.7,0.5,0.7,0.6,0.6,0.3,0.3,�k�k��,13.3,�L
2014/05/21,18:30,0.7,0.5,0.7,0.6,0.6,0.3,0.3,�k,12.4,�L
2014/05/21,18:40,0.7,0.5,0.7,0.6,0.6,0.3,0.3,�k�k��,13.7,�L
2014/05/21,18:50,0.7,0.5,0.7,0.6,0.6,0.3,0.3,�k�k��,12.6,�L
2014/05/21,19:00,0.7,0.5,0.7,0.6,0.6,0.3,0.3,�k�k��,14.3,�L
2014/05/21,19:10,0.7,0.5,0.7,0.6,0.6,0.3,0.3,�k�k��,10.7,�L
2014/05/21,19:20,0.7,0.5,0.7,0.6,0.6,0.3,0.3,�k�k��,13.7,�L
2014/05/21,19:30,0.7,0.5,0.7,0.6,0.6,0.3,0.3,�k�k��,12.9,�L
2014/05/21,19:40,0.7,0.5,0.7,0.6,0.6,0.3,0.3,�k�k��,14.1,�L
2014/05/21,19:50,0.7,0.5,0.7,0.6,0.6,0.3,0.3,�k�k��,13.6,�L
2014/05/21,20:00,0.7,0.5,0.7,0.6,0.6,0.3,0.3,�k�k��,14.6,�L
2014/05/21,20:10,0.7,0.5,0.7,0.6,0.6,0.3,0.3,�k�k��,12.7,�L
2014/05/21,20:20,0.7,0.5,0.7,0.6,0.6,0.3,0.3,�k�k��,14.3,�L
2014/05/21,20:30,0.7,0.5,0.7,0.6,0.6,0.3,0.3,�k�k��,12.6,�L
2014/05/21,20:40,0.7,0.5,0.7,0.6,0.6,0.3,0.3,�k�k��,12.3,�L
2014/05/21,20:50,0.7,0.5,0.7,0.6,0.6,0.3,0.3,�k�k��,14.2,�L
2014/05/21,21:00,0.7,0.5,0.7,0.6,0.6,0.3,0.3,�k�k��,13.2,�L
2014/05/21,21:10,0.7,0.5,0.7,0.6,0.6,0.3,0.3,�k�k��,12.4,�L
2014/05/21,21:20,0.7,0.5,0.7,0.6,0.6,0.3,0.3,�k�k��,13.1,�L
2014/05/21,21:30,0.7,0.5,0.7,0.6,0.6,0.3,0.3,�k�k��,12.1,�L
2014/05/21,21:40,0.7,0.5,0.7,0.6,0.6,0.3,0.3,�k�k��,12.0,�L
2014/05/21,21:50,0.7,0.5,0.7,0.6,0.6,0.3,0.3,�k,12.9,�L
2014/05/21,22:00,0.7,0.5,0.7,0.6,0.6,0.3,0.3,�k,13.7,�L
2014/05/21,22:10,0.7,0.5,0.7,0.6,0.6,0.3,0.3,�k,13.2,�L
2014/05/21,22:20,0.7,0.5,0.7,0.6,0.6,0.3,0.3,�k,14.9,�L
2014/05/21,22:30,0.7,0.5,0.7,0.6,0.6,0.3,0.3,�k,12.4,�L
2014/05/21,22:40,0.7,0.5,0.7,0.6,0.6,0.3,0.3,�k,12.9,�L
2014/05/21,22:50,0.7,0.5,0.7,0.6,0.6,0.3,0.3,�k�k��,11.2,��
2014/05/21,23:00,0.7,0.5,0.7,0.6,0.6,0.3,0.3,�k�k��,11.8,��
2014/05/21,23:10,0.7,0.5,0.7,0.6,0.6,0.3,0.3,�k�k��,13.2,��
2014/05/21,23:20,0.7,0.5,0.7,0.6,0.6,0.3,0.3,�k�k��,11.4,��
2014/05/21,23:30,0.7,0.5,0.7,0.6,0.6,0.3,0.3,�k�k��,12.4,��
2014/05/21,23:40,0.7,0.5,0.7,0.6,0.6,0.3,0.3,�k�k��,11.9,��
2014/05/21,23:50,0.7,0.5,0.7,0.6,0.6,0.3,0.3,�k�k��,12.3,��
